LEMUR-2-VICTOR-ANDREW (44087 NORAD) Tracking and Keplerian Element Data

This shows tracking and keplerian element data for the satellite.

Feedback or suggestion? Click here.




ElementValue
Catalog44087
NameLEMUR-2-VICTOR-ANDREW
Epoch Orbit301
Epoch Day111.1340738
Epoch Year2019
RAAN171.5209
Inclination97.4626
Eccentricity0.0013073
Argument of Perigee207.8612
Mean Anonmoly152.1925
Mean Motion15.21542345
Decay Rate1.905E-05
L11 44087U 19018K 19111.13407380 .00001905 00000-0 87545-4 0 9999
L22 44087 97.4626 171.5209 0013073 207.8612 152.1925 15.21542345 3015

Live tracking and technical data element details for LEMUR-2-VICTOR-ANDREW (NORAD 44087). LEMUR-2-VICTOR-ANDREW can be tracked NOW for your location showing map with azimuth and elevation plus other details from your city location.

Track the satellite on the map from your city or location and see movement details for azimuth, elevation, latitude, longitude, range, height, and movement on the map or in text.







IsCatalogInMostPopularTable: catalog: 44087, numindb: 2
Update: records affected: 1



GetName: 44087 LEMUR-2-VICTOR-ANDREW

Hit Count: updated at: Tue, 23 Apr 2019 03:00:14 GMT